EW0890 Weather Reports


time (UTC)temp
C
wind
direction
speed
KPH
gust
KPH
rain 1hr
cm
rain 24hr
cm
rain mn
cm
humidity
%
barometer
mb
20260505025004 15 319 1.6 11.3 0.38 0.38 0.38 79 1003.8
20260505024525 16 158 3.2 12.9 0.23 0.23 0.23 73 1003.6
20260505024003 17 281 3.2 22.5 0.00 0.00 0.00 66 1003.5
20260505023507 18 309 8.0 48.3 0.00 0.00 0.00 58 1003.4
20260505023019 20 9 17.7 48.3 0.00 0.00 0.00 60 1003.4
20260505022506 20 219 16.1 22.5 0.00 0.00 0.00 64 1001.5
20260505022007 20 225 17.7 22.5 0.00 0.00 0.00 63 1001.3
20260505021526 20 225 17.7 22.5 0.00 0.00 0.00 63 1001.2
20260505021006 20 224 17.7 27.4 0.00 0.00 0.00 62 1001.1
20260505020503 20 210 19.3 27.4 0.00 0.00 0.00 61 1001.0
20260505020006 20 218 22.5 27.4 0.00 0.00 0.00 61 1001.0
20260505015504 20 233 20.9 27.4 0.00 0.00 0.00 61 1001.0
20260505015004 20 217 20.9 27.4 0.00 0.00 0.00 60 1001.0
20260505014512 20 211 22.5 32.2 0.00 0.00 0.00 60 1000.9
20260505014003 20 216 25.7 32.2 0.00 0.00 0.00 59 1000.8
20260505013509 20 219 25.7 33.8 0.00 0.00 0.00 59 1000.8
20260505013015 21 225 22.5 35.4 0.00 0.00 0.00 58 1000.7
20260505012506 21 240 29.0 35.4 0.00 0.00 0.00 58 1000.7
20260505012007 21 221 24.1 33.8 0.00 0.00 0.00 59 1000.6
20260505011006 21 217 22.5 30.6 0.00 0.00 0.00 59 1000.6
20260505010508 21 214 22.5 30.6 0.00 0.00 0.00 59 1000.5
20260505010022 21 222 22.5 32.2 0.00 0.00 0.00 59 1000.4
20260505005503 21 214 24.1 35.4 0.00 0.00 0.00 58 1000.3
20260505005004 21 238 24.1 35.4 0.00 0.00 0.00 58 1000.1
20260505004517 21 223 27.4 38.6 0.00 0.00 0.00 57 999.9
20260505004003 21 217 29.0 38.6 0.00 0.00 0.00 57 999.9
20260505003503 21 222 27.4 38.6 0.00 0.00 0.00 58 999.9
20260505003012 21 229 25.7 32.2 0.00 0.00 0.00 58 1000.0
20260505002509 21 226 24.1 32.2 0.00 0.00 0.00 58 1000.2
20260505002012 22 221 24.1 38.6 0.00 0.00 0.00 57 1000.2
20260505001514 22 236 27.4 38.6 0.00 0.00 0.00 56 1000.2
20260505001010 22 224 27.4 46.7 0.00 0.00 0.00 55 1000.1
20260505000508 22 225 33.8 48.3 0.00 0.00 0.00 54 1000.0
20260505000035 22 233 38.6 53.1 0.00 0.00 0.00 53 999.9
20260504235507 23 229 35.4 53.1 0.00 0.00 0.00 52 999.7
20260504235009 23 248 30.6 48.3 0.00 0.00 0.00 52 999.7
20260504234524 23 229 35.4 49.9 0.00 0.00 0.00 52 999.6
20260504234003 23 238 35.4 49.9 0.00 0.00 0.00 52 999.7
20260504233504 23 226 40.2 51.5 0.00 0.00 0.00 51 999.7
20260504233008 23 224 40.2 53.1 0.00 0.00 0.00 51 999.7
20260504232505 23 233 38.6 53.1 0.00 0.00 0.00 50 999.7
20260504232004 23 238 40.2 51.5 0.00 0.00 0.00 50 999.8
20260504231510 24 224 40.2 51.5 0.00 0.00 0.00 49 999.9
20260504231004 24 235 38.6 54.7 0.00 0.00 0.00 50 1000.0
20260504230507 24 242 43.5 56.3 0.00 0.00 0.00 49 1000.1
20260504230016 24 227 40.2 56.3 0.00 0.00 0.00 49 1000.2
20260504225507 24 232 38.6 53.1 0.00 0.00 0.00 49 1000.3
20260504225012 24 238 37.0 53.1 0.00 0.00 0.00 48 1000.3
20260504224521 24 245 40.2 51.5 0.00 0.00 0.00 47 1000.3
20260504224011 24 236 37.0 54.7 0.00 0.00 0.00 48 1000.4
20260504223006 24 225 43.5 53.1 0.00 0.00 0.00 47 1000.6
20260504222504 25 238 40.2 59.5 0.00 0.00 0.00 48 1000.7
20260504222003 25 236 41.8 59.5 0.00 0.00 0.00 47 1000.8
20260504221510 25 237 41.8 53.1 0.00 0.00 0.00 47 1000.9
20260504221008 25 237 40.2 53.1 0.00 0.00 0.00 47 1000.8
20260504220505 25 255 43.5 54.7 0.00 0.00 0.00 47 1000.9
20260504220016 25 243 37.0 54.7 0.00 0.00 0.00 47 1000.9
20260504215507 25 238 41.8 56.3 0.00 0.00 0.00 46 1001.0
20260504215008 25 238 46.7 56.3 0.00 0.00 0.00 45 1000.9
20260504214519 25 229 38.6 57.9 0.00 0.00 0.00 46 1001.0
20260504214009 25 238 41.8 57.9 0.00 0.00 0.00 45 1001.2
20260504213508 25 257 38.6 53.1 0.00 0.00 0.00 44 1001.2
20260504213023 25 237 40.2 59.5 0.00 0.00 0.00 44 1001.1
20260504212507 25 238 37.0 59.5 0.00 0.00 0.00 45 1001.2
20260504212009 25 241 40.2 57.9 0.00 0.00 0.00 46 1001.2
20260504211506 25 236 40.2 57.9 0.00 0.00 0.00 45 1001.2
20260504211004 25 227 41.8 54.7 0.00 0.00 0.00 44 1001.2
20260504210504 25 250 43.5 51.5 0.00 0.00 0.00 44 1001.2
20260504210018 25 231 38.6 53.1 0.00 0.00 0.00 43 1001.3
20260504205505 25 229 38.6 54.7 0.00 0.00 0.00 44 1001.3
20260504205004 25 238 43.5 56.3 0.00 0.00 0.00 43 1001.2
20260504204516 25 247 43.5 56.3 0.00 0.00 0.00 44 1001.2
20260504204006 25 241 43.5 56.3 0.00 0.00 0.00 43 1001.3
20260504203514 25 235 40.2 56.3 0.00 0.00 0.00 43 1001.2
20260504203027 25 232 41.8 56.3 0.00 0.00 0.00 44 1001.4
20260504202513 25 228 37.0 59.5 0.00 0.00 0.00 43 1001.5
20260504202012 25 250 40.2 59.5 0.00 0.00 0.00 43 1001.3
20260504201524 25 245 41.8 57.9 0.00 0.00 0.00 43 1001.4
20260504201006 25 240 41.8 49.9 0.00 0.00 0.00 43 1001.5
20260504200509 26 233 37.0 48.3 0.00 0.00 0.00 43 1001.6
20260504200011 25 243 40.2 48.3 0.00 0.00 0.00 43 1001.6
20260504195503 25 248 38.6 54.7 0.00 0.00 0.00 43 1001.7
20260504195005 25 232 38.6 54.7 0.00 0.00 0.00 43 1001.8
20260504194514 25 245 35.4 51.5 0.00 0.00 0.00 42 1001.7
20260504194005 25 233 35.4 51.5 0.00 0.00 0.00 45 1001.7
20260504193505 25 225 32.2 45.1 0.00 0.00 0.00 47 1002.1
20260504193017 25 236 32.2 45.1 0.00 0.00 0.00 47 1001.8
20260504192505 25 239 37.0 45.1 0.00 0.00 0.00 47 1001.8
20260504192009 25 225 30.6 46.7 0.00 0.00 0.00 47 1001.8
20260504191507 25 228 37.0 48.3 0.00 0.00 0.00 47 1002.0
20260504191004 25 217 35.4 48.3 0.00 0.00 0.00 46 1002.2
20260504190502 25 234 33.8 48.3 0.00 0.00 0.00 47 1002.3
20260504190007 24 235 32.2 48.3 0.00 0.00 0.00 49 1002.3
20260504185504 24 226 29.0 48.3 0.00 0.00 0.00 49 1002.2
20260504185003 23 238 24.1 41.8 0.00 0.00 0.00 53 1002.3
20260504184514 23 238 30.6 45.1 0.00 0.00 0.00 53 1002.3
20260504184004 23 233 32.2 46.7 0.00 0.00 0.00 56 1002.5
20260504183504 22 235 27.4 46.7 0.00 0.00 0.00 57 1002.7
20260504183017 22 227 29.0 41.8 0.00 0.00 0.00 57 1002.7
20260504182505 22 236 29.0 41.8 0.00 0.00 0.00 55 1002.6
20260504182006 22 222 30.6 41.8 0.00 0.00 0.00 58 1002.7
20260504181522 22 230 32.2 41.8 0.00 0.00 0.00 56 1002.7
20260504181007 22 242 33.8 48.3 0.00 0.00 0.00 54 1002.9
20260504180513 22 227 35.4 48.3 0.00 0.00 0.00 54 1002.7
20260504180009 22 244 37.0 48.3 0.00 0.00 0.00 52 1002.7
20260504175503 22 242 35.4 45.1 0.00 0.00 0.00 51 1002.8
20260504175003 22 223 35.4 45.1 0.00 0.00 0.00 50 1002.8
20260504174509 23 236 37.0 53.1 0.00 0.00 0.00 49 1002.8
20260504174003 23 238 32.2 53.1 0.00 0.00 0.00 49 1002.9
20260504173504 23 238 43.5 53.1 0.00 0.00 0.00 48 1002.9
20260504173014 23 250 35.4 49.9 0.00 0.00 0.00 46 1003.0
20260504172504 23 251 37.0 53.1 0.00 0.00 0.00 46 1002.9
20260504172004 23 241 40.2 53.1 0.00 0.00 0.00 46 1002.8
20260504171518 23 244 35.4 48.3 0.00 0.00 0.00 48 1002.9
20260504170508 23 233 37.0 48.3 0.00 0.00 0.00 47 1002.9
20260504151003 21 229 29.0 38.6 0.00 0.00 0.00 54 1003.3
20260504150507 21 245 29.0 37.0 0.00 0.00 0.00 57 1003.3
20260504110508 11 219 11.3 16.1 0.00 0.00 0.00 86 1005.2
20260504100506 10 218 14.5 17.7 0.00 0.00 0.00 86 1005.4
20260504082003 11 223 19.3 27.4 0.00 0.00 0.00 84 1006.1
20260504081517 11 226 17.7 25.7 0.00 0.00 0.00 84 1006.1
20260504081004 11 215 19.3 24.1 0.00 0.00 0.00 84 1006.2
20260504080504 11 217 20.9 25.7 0.00 0.00 0.00 84 1006.2
20260504050507 12 214 14.5 20.9 0.00 0.00 0.00 76 1007.6
20260504045506 12 229 16.1 20.9 0.00 0.00 0.00 76 1007.6
20260504045007 12 235 14.5 22.5 0.00 0.00 0.00 75 1007.7
20260504044518 12 229 14.5 22.5 0.00 0.00 0.00 75 1007.7
20260504044008 12 221 16.1 20.9 0.00 0.00 0.00 75 1007.8
20260504043508 12 210 16.1 20.9 0.00 0.00 0.00 75 1007.8
20260504043021 12 219 14.5 19.3 0.00 0.00 0.00 75 1007.8
20260504042507 12 212 16.1 19.3 0.00 0.00 0.00 75 1007.8
20260504042007 12 225 14.5 19.3 0.00 0.00 0.00 75 1007.7
20260504041523 12 221 16.1 19.3 0.00 0.00 0.00 75 1007.7
20260504041010 12 229 14.5 19.3 0.00 0.00 0.00 76 1007.7
20260504040510 12 224 12.9 16.1 0.00 0.00 0.00 75 1007.8
20260504040028 12 237 11.3 16.1 0.00 0.00 0.00 74 1007.8
20260504035512 12 219 11.3 16.1 0.00 0.00 0.00 74 1007.9
20260504035007 12 236 12.9 17.7 0.00 0.00 0.00 73 1008.0
20260504034529 12 226 12.9 17.7 0.00 0.00 0.00 73 1008.0
20260504034011 12 220 14.5 17.7 0.00 0.00 0.00 73 1008.1
20260504033507 12 219 12.9 16.1 0.00 0.00 0.00 72 1008.1
20260504033017 13 232 9.7 16.1 0.00 0.00 0.00 71 1008.1
20260504032509 13 231 12.9 20.9 0.00 0.00 0.00 71 1008.2
20260504032009 13 224 14.5 20.9 0.00 0.00 0.00 71 1008.2
20260504031524 13 225 12.9 17.7 0.00 0.00 0.00 70 1008.2
20260504031008 13 243 9.7 14.5 0.00 0.00 0.00 70 1008.1
20260504030507 13 244 8.0 14.5 0.00 0.00 0.00 70 1008.2
20260504030023 13 240 9.7 12.9 0.00 0.00 0.00 69 1008.1
20260504025507 13 253 9.7 12.9 0.00 0.00 0.00 69 1008.2